Uvalde Research's Hourly Summary for Monday, May 14, 2018
Hour Temp
(f)
RH
(%)
Solar Rad.
(MJ/m2)
Rainfall
(in)
Wind
(mph)
5/14/2018 12:00 AM 78 75 0 0 5.04
5/14/2018 1:00 AM 76 79 0 0 5.04
5/14/2018 2:00 AM 75 82 0 0 3.69
5/14/2018 3:00 AM 74 85 0 0 2.52
5/14/2018 4:00 AM 74 87 0 0 2.23
5/14/2018 5:00 AM 74 87 0 0 2.48
5/14/2018 6:00 AM 73 88 0 0 2.07
5/14/2018 7:00 AM 73 89 0.11 0 2.7
5/14/2018 8:00 AM 74 89 0.35 0 3.27
5/14/2018 9:00 AM 75 87 0.58 0 3.92
5/14/2018 10:00 AM 77 82 0.81 0 4.93
5/14/2018 11:00 AM 79 77 0.92 0 4.42
5/14/2018 12:00 PM 79 75 0.84 0 3.65
5/14/2018 1:00 PM 81 70 1.18 0 3.45
5/14/2018 2:00 PM 82 68 0.9 0 3.33
5/14/2018 3:00 PM 83 66 0.9 0 2.86
5/14/2018 4:00 PM 85 62 1.77 0 3.38
5/14/2018 5:00 PM 87 56 1.35 0 3.16
5/14/2018 6:00 PM 87 55 0.32 0 1.98
5/14/2018 7:00 PM 86 56 0.12 0 1.12
5/14/2018 8:00 PM 84 62 0.01 0 0.17
5/14/2018 9:00 PM 83 63 0 0 1.96
5/14/2018 10:00 PM 81 66 0 0 4.35
5/14/2018 11:00 PM 79 70 0 0 4.41
Data Summary 79 74 10.16 0.00 3.17